Find RAPTOR 2

NORAD ID: 58959 Int'l Des: 2024-028 Owner: SDA Country: US operational
LEOCIRCULAR

Current View

Loading 3D Globe...

About RAPTOR 2

RAPTOR 2 (NORAD 58959) is a satellite launched Feb 14, 2024 by SDA of US. It operates in LEO, CIRCULAR orbit with a mass of 1000.00 kg.

Upcoming Passes

Passes for default location (London). Set your location on the main map for personalized predictions.

Altitude History

Loading altitude history...

Two-Line Element Set

1 58959U 24028E 26194.30203715 -.00000035 00000-0 47777-4 0 9990
2 58959 39.9909 282.9557 0010774 44.8452 315.3163 13.70558278120653
Epoch: Jul 13, 2026 • Age: 24 hours

Current Status

Altitude 996.8 km
Apogee / Perigee N/A
Velocity 7.36 km/s
Sub-Earth Point -12.52°S, 143.79°W
Launch Date Feb 14, 2024
Age 2.4 years
Type other

Technical Details

Classification Payload
Mass 1000.00 kg
Dry Mass 1000.00 kg
Total Mass 1000.00 kg
Length 1.00 m
Diameter 0.60 m
Span 2.00 m
Shape Box + panels
Manufacturer HARRL3
Bus Type TPL0-L3H
Phase Status In Orbit
Owner/State SDA/US

Most Searched